Regional Weather Roundup
Issued by NWS

Home | Current Version | Previous Version | Graphics & Text | Print | Product List | Glossary On
Versions: 1 2 3 4 5 6 7 8 9 10 11 12 13 14 15 16 17 18 19 20 21 22 23 24 25 26 27 28 29 30 31 32 33 34 35 36 37 38 39 40 41 42 43 44 45 46 47 48 49 50
000
ASUS43 KBIS 221502
RWRND

NORTH DAKOTA REGIONAL WEATHER ROUNDUP
NATIONAL WEATHER SERVICE BISMARCK ND
1000 AM CDT WED MAR 22 2017

NOTE: "FAIR" INDICATES FEW OR NO CLOUDS BELOW 12,000 FEET WITH NO
SIGNIFICANT WEATHER AND/OR OBSTRUCTIONS TO VISIBILITY.


NDZ001>003-009>011-017-221600-
NORTHWEST NORTH DAKOTA

CITY           SKY/WX    TMP DP  RH WIND       PRES   REMARKS
WILLISTON      CLOUDY    31  23  72 SE16G23   29.94F WCI  20
MINOT          CLOUDY    27  18  69 SE22G28   30.08F WCI  13
MINOT AFB      CLOUDY    25  19  78 SE22      30.07F WCI  10
$$

NDZ018>021-031>035-040>046-221600-
SOUTHWEST NORTH DAKOTA

CITY           SKY/WX    TMP DP  RH WIND       PRES   REMARKS
BISMARCK       FAIR      31  21  66 SE22      30.13F WCI  18
DICKINSON      CLOUDY    30  24  78 S29       29.92S WCI  15
GARRISON         N/A     25  20  81 SE22G30   30.05F WCI  10
HETTINGER ARPT CLOUDY    31  25  78 SE21G28   29.96F WCI  18
$$

NDZ004>008-012>016-024-026-027-054-221600-
NORTHEAST NORTH DAKOTA

CITY           SKY/WX    TMP DP  RH WIND       PRES   REMARKS
GRAND FORKS    CLOUDY    24   5  44 S21G26    30.39S WCI   9
GRND FRKS AFB  CLOUDY    23   9  55 S18G25    30.37F WCI   9
DEVILS LAKE    CLOUDY    23  15  71 SE22      30.24F WCI   8
$$

NDZ022-023-025-028>030-036>039-047>053-221600-
SOUTHEAST NORTH DAKOTA

CITY           SKY/WX    TMP DP  RH WIND       PRES   REMARKS
FARGO          CLOUDY    26   9  48 SE20G29   30.40F WCI  12
JAMESTOWN      CLOUDY    25  16  68 SE21G28   30.25F WCI  11
$$




USA.gov is the U.S. government's official web portal to all federal, state and local government web resources and services.